This is the latest recevied weather packets stored in our database for station/object KJ6APE. If no packets are shown the sender has not sent any weather packets the latest 10 day(s).
| Time | Temp. | Humidity | Pressure | Rain* | Wind** | Luminosity | Snow |
|---|---|---|---|---|---|---|---|
| 1778165367 | 13.33° C | 84% | 1019.7 hPa | 0 mm | - | 103 W/m² | - |
| 1778165064 | 13.33° C | 84% | 1019.6 hPa | 0 mm | - | 93 W/m² | - |
| 1778164761 | 13.33° C | 84% | 1019.5 hPa | 0 mm | - | 100 W/m² | - |
| 1778164458 | 13.33° C | 85% | 1019.6 hPa | 0 mm | - | 91 W/m² | - |
| 1778164155 | 13.33° C | 85% | 1019.6 hPa | 0 mm | - | 80 W/m² | - |
| 1778163850 | 12.78° C | 86% | 1019.5 hPa | 0 mm | - | 67 W/m² | - |
| 1778163548 | 12.78° C | 86% | 1019.6 hPa | 0 mm | - | 57 W/m² | - |
| 1778163244 | 12.78° C | 86% | 1019.5 hPa | 0 mm | - | 52 W/m² | - |
| 1778162940 | 12.78° C | 86% | 1019.5 hPa | 0 mm | - | 52 W/m² | - |
| 1778162637 | 12.78° C | 86% | 1019.2 hPa | 0 mm | - | 49 W/m² | - |
| 1778162335 | 12.78° C | 86% | 1019.3 hPa | 0 mm | - | 40 W/m² | - |
| 1778162032 | 12.78° C | 86% | 1019.3 hPa | 0 mm | - | 37 W/m² | - |
| 1778161729 | 12.78° C | 86% | 1019.1 hPa | 0 mm | - | 30 W/m² | - |
| 1778161425 | 12.78° C | 87% | 1019.3 hPa | 0 mm | - | 21 W/m² | - |
| 1778161121 | 12.78° C | 86% | 1019.4 hPa | 0 mm | - | 18 W/m² | - |
| 1778160817 | 12.78° C | 87% | 1019 hPa | 0 mm | - | 14 W/m² | - |
| 1778160516 | 12.78° C | 87% | 1019.1 hPa | 0 mm | - | 12 W/m² | - |
| 1778160211 | 12.78° C | 87% | 1019.1 hPa | 0 mm | - | 10 W/m² | - |
| 1778159909 | 12.78° C | 87% | 1019.1 hPa | 0 mm | - | 8 W/m² | - |
| 1778159605 | 12.78° C | 87% | 1019 hPa | 0 mm | - | 6 W/m² | - |
| 1778159302 | 12.78° C | 88% | 1018.8 hPa | 0 mm | - | 4 W/m² | - |
| 1778159000 | 12.78° C | 88% | 1018.9 hPa | 0 mm | - | 2 W/m² | - |
| 1778158699 | 12.78° C | 88% | 1018.7 hPa | 0 mm | - | 1 W/m² | - |
| 1778158396 | 12.78° C | 88% | 1018.8 hPa | 0 mm | - | 0 W/m² | - |
| 1778158093 | 12.78° C | 88% | 1018.7 hPa | 0 mm | - | 0 W/m² | - |
* Rain latest hour (hover to see other rain measurements)
** Current wind speed in m/s (hover to see current wind gust speed)